Weather in Tabynskoye

Russia / Republic of Bashkortostan     53°58′59″N   56°23′01″E
temp.,
°C
wind,
m/s
gust,
m/s
humid.,
%
clouds,
%
prec.,
mm/h
press.,
hPa
HPBL,
m
3 march, wed
wed323:00−8ssw81693100 2.5 1005727
02:00−5ssw81494100 1.9 1003708
05:00−4ssw71296100 4.3 1003648
08:00−4ssw61196100 1.8 1002533
11:00−2ssw5895100 2.9 1002520
14:00−1sw4698100 0.6 1001514
17:00−1wsw3592100 0.9 1001478
20:00−6sw229599 0.1 100121
4 march, thu
thu423:00−5sw2697100 0.3 1002163
02:00−6wsw4895100 0.9 1002340
05:00−10sw3696100 1.4 1003219
08:00−12sw3496100 0.9 1005112
11:00−10ssw5894100 1.0 1005368
14:00−8ssw71193100 0.2 1004619
17:00−6sw81394100 1.8 1003834
20:00−7ssw81594100 1.3 1003883
5 march, fri
fri523:00−5ssw91693100 3.5 1001912
02:00−2sw81595100 1.2 1000908
05:00−1wsw71397100 2.7 1002848
08:00−2sw71297100 2.6 1003772
11:00−1sw81397100 5.6 1003898
14:00−1sw81397100 2.6 1002994
17:000ssw71397100 5.6 1001878
20:00+1sw91698100 2.6 1000987
6 march, sat
sat623:000wsw91684100 3.7 10021219
02:00−7w3896100 0.1 1007245
05:00−11w1197100 0.3 101121
08:00−15nw0199100 0.1 101320
11:00−11nnw1193100 0.1 1013218
14:00−9n2289100 0.0 1010309
17:00−9n3595100 0.2 1008245
20:00−11n3796100 0.2 1008222
7 march, sun
sun723:00−13n3696100 0.3 1008232
02:00−18nnw2299100 0.0 100920
05:00−21nne01100100 0.1 101120
08:00−22s2210097 0.0 101320
11:00−15ssw239162 0.0 1013221
14:00−11sw348970 0.0 1013396
17:00−10sw359185 0.1 1013491
20:00−13ssw2396100 0.1 101571